Tracking 35237 objects as of 6-Sep-2026
HD Live streaming from Space Station
objects crossing your sky now

SL-12 R/B(AUX MOTOR)


SL-12 R/B(AUX MOTOR) is no longer on orbit


NORAD ID: 22985
Int'l Code: 1994-008E
Launch date: February 5, 1994
Source: Commonwealth of Independent States (former USSR) (CIS)
Launch site: TYURATAM MISSILE AND SPACE COMPLEX (TTMTR)
Decay date: 1994-11-28

Note: This is a ROCKET BODY
Your satellite tracking list
Your tracking list is empty




NASA's NSSDC Master Catalog

Two Line Element Set (TLE):
1 22985U 94008  E 94331.31078582  .69368035 +15251-4 +21944-2 0  9991
2 22985 046.5653 149.5130 1342841 123.8812 257.3688 13.39602858008606
Source of the keplerian elements: AFSPC